User: anonymous   Login
Location: Unspecified
(0.0000°N, 0.0000°E)
Time: 19:10:43
(UTC+00:00)
Language:

Kosmos-2100 - Orbit

View from above orbital plane
View from above orbital plane
View from above satellite
View from above satellite

Ground track
Ground track

The orbit data is extracted from the following two-line orbital elements,

1 20804U 90083A   18111.40868296  .00000047  00000-0  34555-4 0  9996
2 20804  82.9425 213.1768 0035566 299.8970 127.2855 13.74313020384327
Epoch (UTC): 21 April 2018 09:48:30
Eccentricity: 0.0035566
inclination: 82.9425°
perigee height: 958 km
apogee height: 1010 km
right ascension of ascending node: 213.1768°
argument of perigee: 299.8970°
revolutions per day: 13.74313020
mean anomaly at epoch: 127.2855°
orbit number at epoch: 38432

The dashed part of the orbit path shows where the satellite is in the earth's shadow,  

DLR